Location: Newark
(9.4667°S, 159.8167°E)
Time: 04:40:20
(UTC+00:00)

Vanguard 1 - Pass Details

Date: 15 November 2019
Orbit: 651 x 3832 km, 34.3° (Epoch: 14 December)

Event Time Altitude Azimuth Distance (km) Brightness Sun altitude
Rises 14:07:27 0° 252° (WSW) 6,220 14.1 -58.1°
Reaches altitude 10° 14:11:52 10° 242° (WSW) 5,627 13.8 -57.6°
Maximum altitude 14:28:15 34° 182° (S) 4,972 13.6 -55.3°
Drops below altitude 10° 14:48:31 10° 123° (ESE) 6,845 14.8 -52.2°
Sets 14:54:44 0° 114° (ESE) 7,658 15.2 -51.1°
